Content
SEND FEEDBACK

Daily
Averages
Monthly
Summary
French Polynesia

FAAA, FRENCH POLYNESIA


Home > Oceania > French Polynesia
Elevation: 7 feet     Latitude: 17 33S     Longitude: 149 37W

WEATHER
 
SELECT A DAY
Number of Records: 208,245;   Date Range: 6/30/96 - 7/28/14
 
SHARE

PRINT THIS DATA

[ ← Previous Day ]
WEATHER ALMANAC - JANUARY 7, 2013
[ Next Day → ]
[ °C ]   °F
Weather ElementAverageHighLow
Temperature79 °F86 °F (11:30 am)72 °F (8:00 pm)
Dewpoint70.6 °F75.2 °F (4:00 pm)62.6 °F (10:00 pm)
Humidity75.3 %94 % (1:00 am)50 % (11:00 pm)
Barometer29.83 in29.92 in (8:00 pm)29.74 in (3:00 am)
Wind Speed13.4 mph24.2 mph (7:00 pm)
Wind Gust35.7 mph (10:00 am)
Weather ElementAverage
Visibility6.5 mi
Wind DirectionENE (67.5 °)

Weather ElementTotal
Precipitation---
Cooling Degree Days14 (Base 65)
Growing Degree Days29 (Base 50)
Averaged from 55 records on January 7, 2013
WEATHER CONDITIONS BREAKOUT
WIND DIRECTION BREAKOUT
WEATHER BY HOUR - JANUARY 7, 2013
[ °C ]   °F
Local TimeTemperatureDewpointHumidityBarometerVisibilityWind DirectionWind SpeedGust SpeedPrecipitationEventsConditions
12:30 AM75.2 °F71.6 °F89 %29.83 in6.2 miENE (70°)11.5 mphRainLight Rain
1:00 AM73.4 °F71.6 °F94 %29.80 in6.2 miEast (80°)13.8 mphRainLight Rain
1:30 AM75.2 °F69.8 °F83 %29.77 in6.2 miENE (60°)11.5 mphRainLight Rain
2:00 AM76.0 °F69.0 °F74 %29.78 in6.0 miENE (70°)22.4 mphRainLight Rain
2:00 AM77.0 °F69.8 °F78 %29.77 in6.2 miENE (70°)11.5 mphRainLight Rain
2:30 AM77.0 °F68.0 °F74 %29.77 in6.2 miENE (70°)10.4 mphRainLight Rain
3:00 AM77.0 °F68.0 °F74 %29.74 in6.2 miEast (80°)12.7 mphRainLight Rain
3:30 AM78.8 °F68.0 °F69 %29.77 in6.2 miENE (70°)12.7 mph
4:00 AM77.0 °F69.8 °F78 %29.77 in6.2 miENE (70°)11.5 mphOvercast
4:30 AM78.8 °F69.8 °F74 %29.77 in6.2 miENE (70°)11.5 mphRainLight Rain
5:00 AM78.0 °F71.0 °F74 %29.79 in28.0 miENE (60°)11.5 mphClear
5:00 AM77.0 °F71.6 °F83 %29.77 in6.2 miENE (60°)11.5 mphMostly Cloudy
5:30 AM77.0 °F71.6 °F83 %29.80 in6.2 miENE (70°)13.8 mphRainLight Rain
6:00 AM78.8 °F69.8 °F74 %29.80 in6.2 miENE (60°)10.4 mphMostly Cloudy
6:30 AM77.0 °F71.6 °F83 %29.83 in6.2 miENE (70°)12.7 mphRainLight Rain
7:00 AM77.0 °F71.6 °F83 %29.83 in6.2 miENE (70°)11.5 mphScattered Clouds
7:30 AM80.6 °F69.8 °F70 %29.83 in6.2 miENE (70°)11.5 mphScattered Clouds
8:00 AM80.0 °F70.0 °F64 %29.85 in16.0 miENE (70°)12.7 mphPartly Cloudy
8:00 AM80.6 °F69.8 °F70 %29.83 in6.2 miENE (70°)12.7 mphScattered Clouds
8:30 AM82.4 °F71.6 °F70 %29.83 in6.2 miENE (70°)13.8 mphPartly Cloudy
9:00 AM84.2 °F71.6 °F66 %29.83 in6.2 miENE (60°)13.8 mphPartly Cloudy
9:30 AM84.2 °F73.4 °F70 %29.83 in6.2 miNE (50°)13.8 mphScattered Clouds
10:00 AM82.4 °F71.6 °F70 %29.86 in5.0 miNE (40°)18.4 mph35.7 mphRainRain Showers
10:30 AM75.2 °F71.6 °F89 %29.86 in6.2 miEast (80°)11.5 mphRainLight Rain
11:00 AM83.0 °F72.0 °F63 %29.84 in12.0 miENE (70°)20.1 mphRainLight Rain Showers
11:00 AM84.2 °F71.6 °F66 %29.83 in6.2 miENE (70°)10.4 mphMostly Cloudy
11:30 AM86.0 °F73.4 °F66 %29.83 in6.2 miNE (50°)13.8 mphMostly Cloudy
12:00 PM86.0 °F73.4 °F66 %29.80 in6.2 miNE (50°)13.8 mphScattered Clouds
12:30 PM84.2 °F73.4 °F70 %29.80 in6.2 miNE (40°)13.8 mphScattered Clouds
1:00 PM84.2 °F73.4 °F70 %29.80 in6.2 miNE (50°)11.5 mphScattered Clouds
1:30 PM84.2 °F73.4 °F70 %29.80 in6.2 miNE (50°)11.5 mphMostly Cloudy
2:00 PM85.0 °F72.0 °F58 %29.81 in16.0 miNE (50°)20.1 mphPartly Cloudy
2:00 PM86.0 °F73.4 °F66 %29.80 in6.2 miNE (50°)10.4 mphScattered Clouds
2:30 PM86.0 °F73.4 °F66 %29.80 in6.2 miNE (40°)10.4 mphScattered Clouds
3:00 PM86.0 °F71.6 °F62 %29.80 in6.2 miENE (60°)10.4 mphMostly Cloudy
3:30 PM86.0 °F71.6 °F62 %29.80 in6.2 miNE (40°)12.7 mph33.4 mphMostly Cloudy
4:00 PM77.0 °F75.2 °F94 %29.80 in1.2 miNNE (30°)23.0 mphRainRain
4:30 PM75.2 °F73.4 °F94 %29.83 in6.2 miENE (70°)12.7 mphMostly Cloudy
5:00 PM75.0 °F72.0 °F86 %29.84 in3.0 miENE (70°)22.4 mphRainLight Rain
5:00 PM75.2 °F71.6 °F89 %29.83 in3.1 miENE (70°)11.5 mphRainLight Rain
5:30 PM75.2 °F71.6 °F89 %29.83 in5.6 miENE (70°)10.4 mphMostly Cloudy
6:00 PM75.2 °F71.6 °F89 %29.86 in1.6 miNorth (10°)10.4 mphRainLight Rain
6:30 PM75.2 °F73.4 °F94 %29.89 in1.9 miNNE (20°)18.4 mphRainLight Rain
7:00 PM75.2 °F73.4 °F94 %29.89 in1.2 miNorth (350°)24.2 mphRainLight Rain
7:30 PM73.4 °F69.8 °F88 %29.89 in1.2 miEast (80°)11.5 mphRainLight Rain
8:00 PM72.0 °F69.0 °F89 %29.92 in4.0 miENE (70°)11.5 mphRainLight Rain
8:00 PM73.4 °F69.8 °F88 %29.92 in3.7 miENE (70°)11.5 mphRainLight Rain
8:30 PM73.4 °F69.8 °F88 %29.92 in5.6 miENE (70°)11.5 mphRainLight Rain
9:00 PM75.2 °F69.8 °F83 %29.92 in6.2 miEast (80°)12.7 mphRainLight Rain
9:30 PM75.2 °F68.0 °F78 %29.89 in6.2 miEast (80°)12.7 mphRainLight Rain
10:00 PM78.8 °F62.6 °F57 %29.89 in6.2 miEast (80°)13.8 mphMostly Cloudy
10:30 PM78.8 °F62.6 °F57 %29.89 in6.2 miENE (60°)10.4 mphMostly Cloudy
11:00 PM80.0 °F64.0 °F50 %29.89 in12.0 miENE (70°)20.1 mphPartly Cloudy
11:00 PM80.6 °F64.4 °F58 %29.89 in6.2 miENE (70°)10.4 mphMostly Cloudy
11:30 PM80.6 °F64.4 °F58 %29.86 in6.2 miENE (60°)9.2 mphMostly Cloudy
Hourly data recorded from NTAA, located miles away from Faaa, French Polynesia







STORIES FROM OUR PARTNERS